Regional Weather Roundup
Issued by NWS Burlington, VT

Home | Current Version | Previous Version | Text Only | Print | Product List | Glossary On
Versions: 1 2 3 4 5 6 7 8 9 10 11 12 13 14 15 16 17 18 19 20 21 22 23 24 25 26 27 28 29 30 31 32 33 34 35 36 37 38 39 40 41 42 43 44 45 46 47 48 49 50
000
ASUS41 KBTV 021210
RWRBTV
VERMONT REGIONAL WEATHER ROUNDUP
NATIONAL WEATHER SERVICE BURLINGTON VT
700 AM EST MON MAR 02 2015

NOTE: "FAIR" INDICATES FEW OR NO CLOUDS BELOW 12,000 FEET WITH NO
SIGNIFICANT WEATHER AND/OR OBSTRUCTIONS TO VISIBILITY.

* THESE REPORTS ARE NOT UNDER NWS QUALITY CONTROL AND/OR DO NOT
  REPORT WEATHER SUCH AS PRECIPITATION AND FOG.

VTZ001>019-021300-
_____VERMONT_____


CITY           SKY/WX    TMP DP  RH WIND       PRES   REMARKS
BURLINGTON     LGT SNOW  22  18  85 CALM      29.98S FOG
6HR MIN TEMP:  22; 6HR MAX TEMP:  24; 6HR PCP:  0.02;

MONTPELIER     LGT SNOW  20  16  84 NW12      29.93S FOG     WCI   8
6HR MIN TEMP:  17; 6HR MAX TEMP:  20; 6HR PCP: TRACE;

MORRISVILLE    LGT SNOW  22  17  81 NW6       29.94S VSB 1
6HR MIN TEMP:  22; 6HR MAX TEMP:  24; 6HR PCP: TRACE;

ST. JOHNSBURY*   N/A     20  17  88 MISG      29.90S
6HR MIN TEMP:  20; 6HR MAX TEMP:  22; 6HR PCP:  0.01;

LYNDONVILLE*   LGT SNOW  20  17  86 SW9       29.89S
6HR MIN TEMP:  19; 6HR MAX TEMP:  20;

MIDDLEBURY*    LGT SNOW  23  23 100 CALM      29.96F VSB 1
6HR MIN TEMP:  22; 6HR MAX TEMP:  24;

RUTLAND*       CLOUDY    21  19  93 N6        29.94S
6HR MIN TEMP:  19; 6HR MAX TEMP:  23;

SPRINGFIELD    CLOUDY    14  13  95 CALM      29.93F FOG
6HR MIN TEMP:  14; 6HR MAX TEMP:  17; 6HR PCP: TRACE;

HIGHGATE*      LGT SNOW  21  18  88 W3        29.99R
6HR MIN TEMP:  20; 6HR MAX TEMP:  23;

NEWPORT*       LGT SNOW  20  16  85 W7        29.91S
6HR MIN TEMP:  19; 6HR MAX TEMP:  21;

BENNINGTON     CLOUDY    24  19  81 SW7       29.97S
6HR MIN TEMP:  20; 6HR MAX TEMP:  24;

SUTTON*          N/A     18 N/A N/A MISG        N/A

_____LAKE CHAMPLAIN_____


CITY           SKY/WX    TMP DP  RH WIND       PRES   REMARKS

$$

NYZ007-026>031-035-052-083-021300-
_____NORTHERN NEW YORK_____


CITY           SKY/WX    TMP DP  RH WIND       PRES   REMARKS
PLATTSBURGH    LGT SNOW  20  18  92 CALM      29.99R FOG
6HR MIN TEMP:  19; 6HR MAX TEMP:  23; 6HR PCP: TRACE;

SARANAC LAKE   LGT SNOW  17  13  84 W6        29.89S VSB 1
6HR MIN TEMP:  17; 6HR MAX TEMP:  20; 6HR PCP:  0.01;

MASSENA        PTSUNNY   20  17  88 W8        30.04S
6HR MIN TEMP:  20; 6HR MAX TEMP:  24; 6HR PCP: TRACE;

OGDENSBURG*    LGT SNOW  19  18  93 W7        30.05R
POTSDAM*       LGT SNOW  19  18  93 W9        30.03R
WATERTOWN      LGT SNOW  21  17  84 SW8       30.09S VSB 1
6HR MIN TEMP:  21; 6HR MAX TEMP:  26; 6HR PCP:  0.02;

FT DRUM        LGT SNOW  18  16  92 W9        30.05R FOG
6HR MIN TEMP:  18; 6HR MAX TEMP:  23; 6HR PCP:  0.01;

ALBANY         CLOUDY    26  18  71 NW10      30.04S WCI  16
6HR MIN TEMP:  23; 6HR MAX TEMP:  26; 6HR PCP: TRACE;

GLENS FALLS    PTSUNNY   17  15  92 CALM      30.00S FOG
6HR MIN TEMP:  17; 6HR MAX TEMP:  23;


$$
NHZ002-005-011-021300-
_____NEW HAMPSHIRE_____


CITY           SKY/WX    TMP DP  RH WIND       PRES   REMARKS
LEBANON        LGT SNOW  16  12  84 CALM      29.92F FOG
6HR MIN TEMP:   9; 6HR MAX TEMP:  18; 6HR PCP: TRACE;

KEENE          CLOUDY    16  12  86 CALM      29.94F
6HR MIN TEMP:  12; 6HR MAX TEMP:  21;

MT WASHINGTON  SNOW       1   1 100 NW58        N/A  VSB 0   WCI -31
6HR MIN TEMP:   1; 6HR MAX TEMP:   4; 6HR PCP:  0.04;

PLYMOUTH       LGT SNOW  20  20 100 CALM      29.91S
6HR MIN TEMP:  11; 6HR MAX TEMP:  20;

WHITEFIELD     LGT SNOW  20  17  88 CALM      29.87S FOG
6HR MIN TEMP:  16; 6HR MAX TEMP:  21; 6HR PCP:  0.01;


$$

_____REGIONAL QUEBEC LOCATIONS_____


CITY           SKY/WX    TMP DP  RH WIND       PRES   REMARKS
MONTREAL       FLURRIES  19  16  86 W12       29.98S WCI   7
QUEBEC CITY    FLURRIES  14  10  85 SW12      29.87F WCI   0
SHERBROOKE     LGT SNOW  19  18  93 W6        29.88S

_____REGIONAL ONTARIO LOCATIONS_____


CITY           SKY/WX    TMP DP  RH WIND       PRES   REMARKS
OTTAWA         PTSUNNY   14   9  79 SW7       30.01S

______KEY______
VSB  - VISIBILITY IN MILES
WCI  - WIND CHILL INDEX
HX   - HEAT INDEX
$$
NNNN


USA.gov is the U.S. government's official web portal to all federal, state and local government web resources and services.